• In Germany
  • List of Countries
  • For 7 days
  • Water Temperature
  • Satellite Maps
  • Weather Map
  • Weather Widgets
  • user-avatar
    Login

    Hourly Weather Myshutyne

    Today, 16 November, Friday

    Time Temperature Precipitation Wind Pressure Humidity
    00:00 -5°C° 0 mm 4 mps 758 mmHg 48%
    01:00 -5°C° 0 mm 4 mps 758 mmHg 46%
    02:00 -5°C° 0 mm 3 mps 759 mmHg 44%
    03:00 -5°C° 0 mm 4 mps 759 mmHg 42%
    04:00 -7°C° 0 mm 4 mps 759 mmHg 41%
    05:00 -7°C° 0 mm 4 mps 759 mmHg 39%
    06:00 -6°C° 0 mm 5 mps 759 mmHg 39%
    07:00 -6°C° 0 mm 5 mps 759 mmHg 38%
    08:00 -6°C° 0 mm 5 mps 760 mmHg 37%
    09:00 -5°C° 0 mm 5 mps 760 mmHg 34%
    10:00 -4°C° 0 mm 5 mps 760 mmHg 31%
    11:00 -2°C° 0 mm 6 mps 760 mmHg 28%
    12:00 -1°C° 0 mm 5 mps 760 mmHg 28%
    13:00 0°C° 0 mm 5 mps 760 mmHg 28%
    14:00 0°C° 0 mm 5 mps 760 mmHg 28%
    15:00 -1°C° 0 mm 5 mps 760 mmHg 29%
    16:00 -2°C° 0 mm 5 mps 760 mmHg 31%
    17:00 -4°C° 0 mm 5 mps 760 mmHg 33%
    18:00 -4°C° 0 mm 5 mps 761 mmHg 33%
    19:00 -5°C° 0 mm 5 mps 761 mmHg 32%
    20:00 -5°C° 0 mm 5 mps 761 mmHg 32%
    21:00 -4°C° 0 mm 4 mps 761 mmHg 32%
    22:00 -4°C° 0 mm 4 mps 761 mmHg 32%
    23:00 -5°C° 0 mm 4 mps 761 mmHg 32%

    Tomorrow, 17 November, Saturday

    Time Temperature Precipitation Wind Pressure Humidity
    00:00 -5°C° 0 mm 4 mps 761 mmHg 32%
    01:00 -5°C° 0 mm 4 mps 761 mmHg 33%
    02:00 -5°C° 0 mm 4 mps 761 mmHg 33%
    03:00 -5°C° 0 mm 4 mps 761 mmHg 33%
    04:00 -5°C° 0 mm 3 mps 761 mmHg 34%
    05:00 -5°C° 0 mm 3 mps 760 mmHg 34%
    06:00 -5°C° 0 mm 3 mps 760 mmHg 34%
    07:00 -5°C° 0 mm 3 mps 760 mmHg 34%
    08:00 -5°C° 0 mm 3 mps 760 mmHg 34%
    09:00 -4°C° 0 mm 3 mps 760 mmHg 32%
    10:00 -1°C° 0 mm 3 mps 760 mmHg 30%
    11:00 0°C° 0 mm 3 mps 760 mmHg 28%
    12:00 0°C° 0 mm 3 mps 760 mmHg 30%
    13:00 +1°C° 0 mm 2 mps 759 mmHg 31%
    14:00 +2°C° 0 mm 2 mps 759 mmHg 32%
    15:00 +1°C° 0 mm 2 mps 758 mmHg 34%
    16:00 -2°C° 0 mm 2 mps 758 mmHg 35%
    17:00 -3°C° 0 mm 2 mps 757 mmHg 37%
    18:00 -3°C° 0 mm 2 mps 757 mmHg 36%
    19:00 -1°C° 0 mm 1 mps 757 mmHg 36%
    20:00 -1°C° 0 mm 1 mps 756 mmHg 36%
    21:00 -1°C° 0 mm 1 mps 756 mmHg 36%
    22:00 -1°C° 0 mm 1 mps 755 mmHg 36%
    23:00 -1°C° 0 mm 1 mps 755 mmHg 37%

    Day after tomorrow, 18 November, Sunday

    Time Temperature Precipitation Wind Pressure Humidity
    00:00 -2°C° 0 mm 1 mps 754 mmHg 38%
    01:00 -2°C° 0 mm 1 mps 753 mmHg 40%
    02:00 -4°C° 0 mm 2 mps 753 mmHg 41%
    03:00 -4°C° 0 mm 2 mps 752 mmHg 43%
    04:00 -4°C° 0 mm 2 mps 751 mmHg 45%
    05:00 -4°C° 0 mm 2 mps 750 mmHg 47%
    06:00 -4°C° 0 mm 2 mps 750 mmHg 48%
    07:00 -4°C° 0 mm 2 mps 749 mmHg 50%
    08:00 -6°C° 0 mm 3 mps 749 mmHg 51%
    09:00 -5°C° 0 mm 3 mps 749 mmHg 49%
    10:00 -4°C° 0 mm 3 mps 748 mmHg 46%
    11:00 -2°C° 0 mm 3 mps 748 mmHg 43%
    12:00 -2°C° 0 mm 3 mps 748 mmHg 45%
    13:00 -1°C° 0 mm 3 mps 747 mmHg 46%
    14:00 -1°C° 0 mm 3 mps 747 mmHg 47%
    15:00 -2°C° 0 mm 2 mps 747 mmHg 52%
    16:00 -2°C° 0 mm 2 mps 747 mmHg 57%
    17:00 -3°C° 0 mm 2 mps 747 mmHg 62%
    18:00 -3°C° 0 mm 2 mps 746 mmHg 65%
    19:00 -2°C° 0 mm 1 mps 746 mmHg 68%
    20:00 -2°C° 0 mm 1 mps 746 mmHg 71%
    21:00 -2°C° 0 mm 1 mps 746 mmHg 72%
    22:00 -2°C° 0 mm 1 mps 746 mmHg 73%
    23:00 -2°C° 0 mm 1 mps 747 mmHg 74%

    19 November, Monday

    Time Temperature Precipitation Wind Pressure Humidity
    00:00 -2°C° 0 mm 1 mps 747 mmHg 73%
    01:00 -2°C° 0 mm 1 mps 747 mmHg 73%
    02:00 -2°C° 0 mm 1 mps 747 mmHg 72%
    03:00 -2°C° 0 mm 1 mps 747 mmHg 71%
    04:00 -3°C° 0 mm 1 mps 747 mmHg 70%
    05:00 -3°C° 0 mm 1 mps 747 mmHg 69%
    06:00 -5°C° 0 mm 2 mps 747 mmHg 67%
    07:00 -5°C° 0 mm 2 mps 748 mmHg 65%
    08:00 -5°C° 0 mm 2 mps 748 mmHg 63%
    09:00 -4°C° 0 mm 2 mps 748 mmHg 57%
    10:00 -3°C° 0 mm 2 mps 749 mmHg 52%
    11:00 -2°C° 0 mm 3 mps 749 mmHg 46%
    12:00 -1°C° 0 mm 3 mps 749 mmHg 46%
    13:00 -1°C° 0 mm 3 mps 749 mmHg 46%
    14:00 0°C° 0 mm 3 mps 749 mmHg 46%
    15:00 -1°C° 0 mm 3 mps 750 mmHg 53%
    16:00 -2°C° 0 mm 3 mps 750 mmHg 60%
    17:00 -2°C° 0 mm 3 mps 750 mmHg 67%
    18:00 -3°C° 0.1 mm 4 mps 750 mmHg 74%
    19:00 -3°C° 0.1 mm 4 mps 750 mmHg 80%
    20:00 -3°C° 0.1 mm 4 mps 751 mmHg 86%
    21:00 -2°C° 0.1 mm 4 mps 751 mmHg 87%
    22:00 -2°C° 0.1 mm 4 mps 751 mmHg 87%
    23:00 -2°C° 0.1 mm 4 mps 751 mmHg 87%

    20 November, Tuesday

    Time Temperature Precipitation Wind Pressure Humidity
    00:00 -2°C° 0 mm 4 mps 751 mmHg 84%
    01:00 -2°C° 0 mm 4 mps 751 mmHg 80%
    02:00 -2°C° 0 mm 4 mps 751 mmHg 76%
    03:00 -2°C° 0 mm 4 mps 751 mmHg 72%
    04:00 -3°C° 0 mm 4 mps 751 mmHg 67%
    05:00 -3°C° 0 mm 4 mps 751 mmHg 63%
    06:00 -4°C° 0 mm 5 mps 751 mmHg 62%
    07:00 -4°C° 0 mm 5 mps 751 mmHg 61%
    08:00 -4°C° 0 mm 5 mps 751 mmHg 60%
    09:00 -2°C° 0 mm 5 mps 751 mmHg 63%
    10:00 -2°C° 0 mm 5 mps 751 mmHg 66%
    11:00 -1°C° 0 mm 5 mps 751 mmHg 70%
    12:00 -1°C° 0 mm 5 mps 751 mmHg 72%
    13:00 -1°C° 0 mm 5 mps 751 mmHg 75%
    14:00 -1°C° 0 mm 5 mps 750 mmHg 77%
    15:00 -1°C° 0.1 mm 5 mps 750 mmHg 79%
    16:00 -2°C° 0.1 mm 4 mps 750 mmHg 80%
    17:00 -2°C° 0.1 mm 4 mps 750 mmHg 82%
    18:00 -3°C° 0 mm 4 mps 750 mmHg 84%
    19:00 -3°C° 0 mm 4 mps 750 mmHg 86%
    20:00 -3°C° 0 mm 4 mps 750 mmHg 88%
    21:00 -3°C° 0 mm 4 mps 749 mmHg 88%
    22:00 -3°C° 0 mm 4 mps 749 mmHg 89%
    23:00 -2°C° 0 mm 4 mps 749 mmHg 89%

    21 November, Wednesday

    Time Temperature Precipitation Wind Pressure Humidity
    00:00 -2°C° 0 mm 4 mps 749 mmHg 90%
    01:00 -2°C° 0 mm 4 mps 748 mmHg 90%
    02:00 -2°C° 0 mm 4 mps 748 mmHg 91%
    03:00 -2°C° 0 mm 5 mps 747 mmHg 91%
    04:00 -2°C° 0 mm 5 mps 747 mmHg 91%
    05:00 -2°C° 0 mm 5 mps 747 mmHg 90%
    06:00 -2°C° 0.4 mm 6 mps 746 mmHg 90%
    07:00 -2°C° 0.4 mm 6 mps 746 mmHg 91%
    08:00 -2°C° 0.4 mm 6 mps 745 mmHg 91%
    09:00 -2°C° 1.4 mm 7 mps 745 mmHg 91%
    10:00 -2°C° 1.4 mm 7 mps 744 mmHg 91%
    11:00 -1°C° 1.4 mm 7 mps 744 mmHg 91%
    12:00 -1°C° 2.8 mm 7 mps 743 mmHg 92%
    13:00 -1°C° 2.8 mm 7 mps 742 mmHg 92%
    14:00 -1°C° 2.8 mm 7 mps 742 mmHg 93%
    15:00 -1°C° 1.6 mm 7 mps 741 mmHg 93%
    16:00 -1°C° 1.6 mm 6 mps 741 mmHg 93%
    17:00 -1°C° 1.6 mm 6 mps 740 mmHg 94%
    18:00 -1°C° 0.2 mm 6 mps 740 mmHg 94%
    19:00 -1°C° 0.2 mm 6 mps 739 mmHg 94%
    20:00 +1°C° 0.2 mm 5 mps 739 mmHg 95%
    21:00 +1°C° 0.8 mm 5 mps 739 mmHg 95%
    22:00 +1°C° 0.8 mm 5 mps 738 mmHg 96%
    23:00 +1°C° 0.8 mm 5 mps 738 mmHg 96%
    Show more